Location: Newark
(13.8117°N, 3.6025°W)
Time: 05:34:27
(UTC+00:00)

Explorer 11/Cluster Stage 4 - Pass Details

Date: 25 August 2019
Orbit: 467 x 1260 km, 28.8° (Epoch: 17 September)

Event Time Altitude Azimuth Distance (km) Brightness Sun altitude
Rises 14:37:03 0° 301° (WNW) 4,173 10.7 55.6°
Reaches altitude 10° 14:40:14 10° 307° (NW) 3,160 10.3 54.8°
Maximum altitude 14:47:50 48° 19° (NNE) 1,414 8.3 53.0°
Drops below altitude 10° 14:54:19 10° 93° (E) 2,705 9.1 51.4°
Sets 14:56:50 0° 99° (E) 3,531 9.6 50.8°
